www.pogodaiklimat.ru

Погода и климат >> Архив погоды >> Мексика >> Sn. Cristobal Las Casas


ПОГОДА в Sn. Cristobal Las Casas

  • Прогноз погоды в Sn. Cristobal Las Casas
  • Монитор погоды в Sn. Cristobal Las Casas
  • Климат города

АРХИВ ПОГОДЫ в Sn. Cristobal Las Casas

Время (UTC), дата Ветер
(напр.,м/с)
 
Видим.   Явления Облачность Т
(С)
Тd
(С)
f
(%)
Тe
(С)
Тes
(С)
Комфортность P
(гПа)
Po
(гПа)
Тmin
(С)
Tmax
(С)
R
(мм)
R24
(мм)
S
(см)
00 14.05 С 1 7000 м 4/4 300 м
[Frnb]
+19.0 +16.2 84 +22 +22 комфорт 1010.1 793.9 +16.2 +25.0
03 14.05 штиль 0 3000 м 5/5 210 м
[Frnb]
+16.4 +14.8 90 +16 +16 1010.9 795.1
06 14.05 штиль 0 3000 м 6/6 240 м
[Frnb]
+15.8 +13.9 88 +16 +16 1013.1 795.9 +10.9 +25.0
09 14.05 штиль 0 3000 м 5/5 240 м
[Frnb]
+15.3 +13.5 89 +15 +15 1012.9 794.5
12 14.05 штиль 0 5000 м 6/0
[As trans]
+13.0 +13.0 100 +12 +12 1014.2 794.6 +11.8 +25.0
15 14.05 штиль 0 10 км 6/4 360 м
[Cu med, cong Ac lent]
+18.6 +15.8 84 +19 +26 1015.8 795.8
18 14.05 З 3 10 км 9/9 420 м
[Frnb]
+25.2 +21.9 82 +32 +34 очень
душно
1013.3 795.1 +11.8 +26.2
21 14.05 СЗ 2 10 км 8/8 150 м
[St]
+21.0 +19.8 93 +27 +29 душно 1009.9 793.4
00 15.05 С 2 8000 м 6/6 200 м
[St]
+20.2 +18.4 89 +24 +24 комфорт 1008.1 793.1 +11.8 +26.2
03 15.05 штиль 0 3000 м 5/5 90 м
[St]
+16.6 +16.0 96 +16 +16 1009.8 794.6
06 15.05 штиль 0 3000 м 4/4 90 м
[St]
+16.0 +15.1 94 +16 +16 1011.7 794.9 +11.8 +26.2
09 15.05 штиль 0 3000 м 5/5 90 м
[St]
+14.6 +14.0 96 +14 +14 1011.7 793.8
12 15.05 штиль 0 8000 м 4/0 2000 м
[As trans]
+12.4 +12.1 98 +12 +12 1013.7 794.1 +10.8 +26.2
15 15.05 штиль 0 10 км ясно +19.4 +17.6 89 +21 +36 комфорт 1015.2 795.2
18 15.05 З 2 10 км 8/8 270 м
[Frnb]
+21.8 +19.5 87 +27 +32 душно 1013.2 794.8 +10.8 +25.2
21 15.05 СВ 3 10 км 6/6 360 м
[Cu med, cong]
+22.1 +19.6 86 +28 +32 душно 1010.7 793.5
00 16.05 СВ 1 10 км 5/5 200 м
[Frnb]
+19.6 +17.4 87 +23 +23 комфорт 1008.8 793.1 +10.8 +25.2
03 16.05 СВ 1 3000 м 4/4 150 м
[St]
+16.5 +15.3 93 +17 +17 1009.8 794.6
06 16.05 штиль 0 3000 м 6/6 90 м
[Frnb]
+15.6 +14.9 96 +15 +15 1011.8 795.2 +10.8 +25.2
09 16.05 штиль 0 3000 м 6/6 90 м
[Frnb]
+14.8 +14.1 96 +14 +14 1011.9 793.9
12 16.05 штиль 0 8000 м 6/0
[Ci]
+13.6 +13.1 97 +13 +13 1013.0 794.0 +12.6 +25.2
15 16.05 ЮЗ 1 10 км 5/5 360 м
[St]
+19.0 +14.7 76 +21 +28 комфорт 1015.0 795.1
18 16.05 Ю 2 10 км 4/4 960 м
[Cu med, cong]
+25.4 +17.9 63 +30 +43 душно 1012.1 794.3 +12.6 +26.2
21 16.05 ЮЗ 2 10 км 9/9 480 м
[Cu Sc]
+21.2 +17.3 78 +25 +26 комфорт 1009.7 793.4
00 17.05 СВ 2 10 км 9/9 300 м
[Cu Sc]
+19.2 +15.8 81 +21 +21 комфорт 1008.6 793.5 +12.6 +26.4
03 17.05 штиль 0 3000 м 9/9 240 м
[St]
+16.8 +14.9 89 +17 +17 1010.4 794.9
06 17.05 штиль 0 3000 м 10/10 150 м
[St]
+16.0 +14.7 92 +16 +16 1012.3 795.2 +12.6 +26.4
09 17.05 штиль 0 3000 м 9/9 <50 м
[St]
+14.6 +13.6 94 +14 +14 1011.9 793.8
12 17.05 СВ 1 7000 м дым 5/5 60 м
[St]
+13.2 +12.9 98 +13 +13 1013.4 794.0 +10.0 +26.4
15 17.05 штиль 0 9000 м 3/3 450 м
[Cu med, cong]
+19.4 +16.0 81 +21 +31 комфорт 1014.1 794.5
18 17.05 ЮЗ 2 10 км 5/5 500 м
[Cu Sc]
+25.8 +21.6 78 +33 +44 очень
душно
1011.4 793.7 +10.0 +27.0
21 17.05 Ю 2 10 км 8/8 600 м
[Frnb]
+22.2 +17.4 74 +27 +29 душно 1008.7 793.0
00 18.05 В 2 10 км 8/8 300 м
[St]
+18.6 +14.5 77 +20 +20 1007.0 792.8 +10.0 +27.0
03 18.05 штиль 0 3000 м 8/8 300 м
[St]
+16.8 +14.6 87 +17 +17 1009.5 794.7
06 18.05 штиль 0 3000 м 4/4 150 м
[St]
+14.8 +13.8 94 +14 +14 1010.8 794.3 +10.0 +27.0
09 18.05 штиль 0 3000 м ясно +12.6 +12.3 98 +12 +12 1011.4 793.1
12 18.05 штиль 0 8000 м 4/4
[St]
+11.0 +10.6 97 +10 +10 1014.1 793.7 +10.0
15 18.05 штиль 0 6000 м дым {туман} ясно +19.0 +12.8 67 +20 +35 опасность
простуды
1015.1 794.4
18 18.05 Ю 2 8000 м дым {туман} 4/4 900 м
[Cu med, cong]
+25.0 +17.9 65 +29 +43 душно 1011.7 793.2 +10.0 +26.2
21 18.05 З 3 8000 м дым {туман} 5/5 800 м
[Cu med, cong]
+23.3 +16.8 67 +28 +34 душно 1008.8 792.1
00 19.05 СЗ 3 8000 м дым {туман} 9/9 300 м
[Frnb]
+20.7 +17.0 79 +25 +25 комфорт 1006.8 792.1 +10.0 +26.5
03 19.05 ЮЗ 1 3000 м 8/8 360 м
[Frnb]
+18.5 +15.9 85 +20 +20 1007.6 793.7
06 19.05 Ю 1 3000 м 6/6 300 м
[Frnb]
+17.1 +14.6 85 +18 +18 1009.1 794.2 +10.0 +26.5
09 19.05 ЮЗ 1 3000 м 8/8 150 м
[Frnb]
+14.9 +13.8 93 +15 +15 1009.6 793.3
12 19.05 штиль 0 7000 м дым {туман} 6/6 150 м
[Frnb]
+15.1 +13.9 93 +15 +15 1011.6 793.6 +14.2 +26.5
15 19.05 С 1 7000 м дым {туман} 1/1 500 м
[Cu med, cong]
+21.1 +17.0 77 +25 +36 комфорт 1012.7 794.0
18 19.05 Ю 2 8000 м дым {туман} 6/6 300 м
[Cu med, cong]
+23.7 +21.0 85 +30 +39 очень
душно
1011.3 793.7 +14.2 +24.5
21 19.05 ЮЗ 1 9000 м 9/9 240 м
[Frnb]
+22.4 +20.4 88 +29 +30 очень
душно
1008.2 792.8
00 20.05 штиль 0 3000 м слабый дождь 9/9 <50 м
[Frnb]
+18.0 +17.7 98 +18 +18 1007.3 793.0 6
03 20.05 штиль 0 3000 м {дождь} 10/10 450 м
[Frnb]
+15.2 +15.2 100 +15 +15 1009.6 794.2 5
06 20.05 штиль 0 3000 м {дождь} 10/10 <50 м
[Frnb]
+15.0 +14.7 98 +15 +15 1011.9 794.7 5
09 20.05 штиль 0 3000 м 10/10 30 м
[Frnb]
+14.5 +14.2 98 +14 +14 1012.0 793.5
12 20.05 штиль 0 1000 м дымка {туман} ?/? +13.8 +13.8 100 +13 +13 1014.3 794.3 +25.0
15 20.05 штиль 0 8000 м 3/3 240 м
[Frnb]
+17.6 +18 +28 1015.3 795.1
18 20.05 З 1 9000 м 9/9 210 м
[Frnb]
+23.6 +21.9 90 +30 +33 очень
душно
1013.2 794.7 +12.6 +24.6

 

Местоположение метеостанции Sn. Cristobal Las Casas (Мексика): широта 16.75 долгота -92.63 высота над уровнем моря 2276 м.

В архиве по умолчанию представлена погода в Sn. Cristobal Las Casas за последнюю неделю. Архивные данные за месяц целиком и за предыдущие месяцы, начиная с января 2011 года, Вы можете получить, выбрав интересующий диапазон дат из раскрывающегося списка и нажав кнопку "Ввод!".


*Определитесь, кто Вы:
робот инопланетянин человек

Внимание! Время в таблицах - всемирное. Для получения местного времени необходимо прибавить поправку, которая в Sn. Cristobal Las Casas равна -6 ч.

Смотрите также архив погоды в соседних городах и на ближайших метеорологических станциях:

Погода в Tuxtla Gutierrez (Мексика) (53 км)
Погода в Comitan (Мексика) (77 км)
Погода в Villahermosa (Мексика) (140 км)
Погода в Arriaga (Мексика) (147 км)
Погода в Huehuetenango (Гватемала) (202 км)
Погода в Tapachula City (Мексика) (208 км)
Погода в Coatzacoalcos (Мексика) (243 км)
Погода в Salina Cruz (Мексика) (280 км)
Погода в Flores (Гватемала) (293 км)
Погода в Guatemala (Гватемала) (331 км)

Пояснения к столбцам:

Ветер - указаны скорость ветра в м/с - средняя за 10 мин, порывы в срок и между сроками (в фигурных скобках) и направление, откуда дует ветер: С - северный, СВ - северо-восточный, В - восточный, ЮВ - юго-восточный, Ю - южный, ЮЗ - юго-западный, З - западный, СЗ - северо-западный.
Видимость - горизонтальная дальность видимости в метрах или километрах. При видимости от 1 до 10 км при отсутствии осадков обычно наблюдается дымка, при ухудшении видимости до 1 км и менее - туман. В сухую погоду видимость может ухудшаться дымом, пылью или мглою.
Явления - указаны атмосферные явления, наблюдавшиеся в срок или в последний час перед сроком; фигурными скобками обозначены явления, наблюдавшиеся между сроками (за 1-3 часа до срока); квадратными скобками обозначены град или гололедные отложения с указанием их диаметра в мм.
Облачность - указаны через наклонную черту общая и нижняя облачность в баллах и высота нижней границы облаков в метрах; квадратными скобками обозначены формы облаков: Ci - перистые, Cs - перисто-слоистые, Cc - перисто-кучевые, Ac - высококучевые, As - высокослоистые, Sc - слоисто-кучевые, Ns - слоисто-дождевые, Cu - кучевые, Cb - кучево-дождевые. Подробнее классификацию облаков см. в Атласе облаков (PDF).
T - Температура воздуха - температура, измеренная на высоте 2 м над землей.
Td - Температура точки росы - температура, при понижении до которой содержащийся в воздухе водяной пар достигнет насыщения.
f - Относительная влажность воздуха - влажноcть воздуха, измеренная на высоте 2 м над землей.
Te - Эффективная температура - температура, которую ощущает одетый по сезону человек в тени. Характеристика душности погоды. При расчете учитывается влияние влажности воздуха и скорости ветра на теплоощущения человека.
Tes - Эффективная температура на солнце - температура, которую ощущает человек, с поправкой на солнечный нагрев. Характеристика знойности погоды. Зависит от высоты солнца над горизонтом, облачности и скорости ветра. Ночью, в пасмурную погоду, а также при ветре 12 м/с и более поправка равна нулю.
P - Атмосферное давление - приведенное к уровню моря атмосферное давление.
Po - Атмосферное давление - измеренное на уровне метеостанции атмосферное давление.
Tmin - Минимальная температура - минимум температуры воздуха на высоте 2 м над землей.
Tmax - Максимальная температура - максимум температуры воздуха на высоте 2 м над землей.
R - Количество осадков - Количество выпавших осадков за период времени, мм. При наведении курсора мыши на число - период времени, за который выпало указанное количество осадков.
R24 - Количество осадков - Количество выпавших осадков за 24 часа, мм.
S - Снежный покров - Высота снежного покрова, см. При наведении курсора мыши на число - состояние снежного покрова и степень покрытия местности в баллах.